STARLINK-1169, 45061

Orbit data source: Space-Track

STARLINK-1169, 45061 is a payload satellite owned by SpaceX/Seattle (US) in LEO that was launched on Wed, 29 Jan 2020 UTC via an FALCON 9 launch vehicle from the Air Force Eastern Test Range (AFETR). Payload-class satellites include a variety of spacecraft equipped with specific instruments for various scientific and technological missions. These include communications satellites like Starlink; space stations such as the ISS; scientific satellites like the Hubble; Earth observation satellites from companies like Planet Labs, Umbra, and HawkEye 360; GPS; miniature CubeSats for education and research; and military/defense satellites.

Loading next visibility...
Identifier
45061, 2020-006T
Orbit
LEO
Country
Flag of USUS
Related business
Manufacturer
SpaceX/Seattle
Mission
Partially operational Commercial Communications
Bus & Motor
STARLINK, Unknown motor
Mass
260 kg wet, ~248 kg dry
Launch date (UTC)
2020-01-29 (6 years ago)
Launch vehicle
FALCON 9
Launch site
Air Force Eastern Test Range (AFETR)
Object type
Payload
Rocket body
Debris
Shape & HBR
Box + 1 Pan, 10.1 m
Radar Cross Section
13.562 m², Large (>1 m²)

Expand to show TLE details & history
Last TLE update: 1 week ago

TLE from 1 week ago
0 STARLINK-1169
1 45061U 20006T   26154.54622861  .00048376  00000-0  12810-2 0  9998
2 45061  53.1540 240.0286 0004903 314.8720  45.1885 15.37904890349721
Epoch: 2026-06-03T13:06Z
TLE epoch observation values (Epoch: 2026-06-03T13:06:34.151Z)
Latitude
-0.00007°
Longitude
151.38295°
Altitude
450.848 km
Speed
7.644 km/s
True Right ascension
16h 00m 06s
True Declination
0° 00' 00"
Sunlit
Object was in full shadow at epoch
Visualization orbit readout
Latitude
Unknown
Longitude
Unknown
Altitude
Unknown
Speed
Unknown
Apparent Right ascension
Unknown
Apparent Declination
Unknown
Sunlit
N/A
Visualization observer readout
Local Sidereal Time
02:38:38
Azimuth
Unknown
Elevation
Unknown
Doppler factor
Unknown
Orbital elements
Apogee altitude
455.913 km
Perigee altitude
449.215 km
Semi-major axis
6,830.701 km
Eccentricity
0.00049
Inclination
53.154°
RAAN
240.0286°
Arg. of periapsis
314.872°
True anomaly
45.22838°
Mean anomaly
45.1885°
Eccentric anomaly
45.20844°
Mean motion
3.84455 °/min
Orbital period
93.64 mins
BSTAR
0.001281
Loading maneuver chart data...
Computing Atmospheric mass density...

Documentation

Showing up to 5 results
|